User: anonymous   Login
Location: Curupao
(10.4996°N, 66.6442°W)
Time: 18:42:08
(UTC+00:00)
Language:

CZ-4C R/B - Orbit

View from above orbital plane
View from above orbital plane
View from above satellite
View from above satellite

Ground track
Ground track

The orbit data is extracted from the following two-line orbital elements,

1 36416U 10009D   24206.93424245  .00002193  00000-0  58528-3 0  9993
2 36416  63.4007 122.5337 0638557 359.1198   0.8664 13.70927186719594
Epoch (UTC): 24 July 2024 22:25:18
Eccentricity: 0.0638557
inclination: 63.4007°
perigee height: 525 km
apogee height: 1467 km
right ascension of ascending node: 122.5337°
argument of perigee: 359.1198°
revolutions per day: 13.70927186
mean anomaly at epoch: 0.8664°
orbit number at epoch: 71959

The dashed part of the orbit path shows where the satellite is in the earth's shadow,  

DLR